TimePST,TemperatureF,Dew PointF,Humidity,Sea Level PressureIn,VisibilityMPH,Wind Direction,Wind SpeedMPH,Gust SpeedMPH,PrecipitationIn,Events,Conditions,WindDirDegrees,DateUTC
12:53 AM,44.1,37.9,79,30.00,10.0,SSW,5.8,-,N/A,,Clear,210,2012-12-07 08:53:00
1:53 AM,43.0,37.0,80,29.99,10.0,South,6.9,-,N/A,,Clear,190,2012-12-07 09:53:00
2:53 AM,41.0,36.0,82,29.99,10.0,South,4.6,-,N/A,,Clear,190,2012-12-07 10:53:00
3:53 AM,39.9,36.0,86,30.00,10.0,South,5.8,-,N/A,,Clear,180,2012-12-07 11:53:00
4:53 AM,39.9,36.0,86,30.02,10.0,SSW,8.1,-,N/A,,Clear,210,2012-12-07 12:53:00
5:53 AM,39.0,35.1,86,30.04,10.0,SSW,8.1,-,N/A,,Clear,210,2012-12-07 13:53:00
6:53 AM,39.9,35.1,83,30.05,10.0,SSW,3.5,-,N/A,,Clear,210,2012-12-07 14:53:00
7:53 AM,45.0,39.0,80,30.06,10.0,Calm,Calm,-,N/A,,Clear,0,2012-12-07 15:53:00
8:53 AM,51.1,42.1,71,30.08,10.0,North,3.5,-,N/A,,Clear,10,2012-12-07 16:53:00
9:53 AM,54.0,42.1,64,30.09,10.0,Calm,Calm,-,N/A,,Clear,0,2012-12-07 17:53:00
10:53 AM,59.0,42.1,53,30.07,10.0,Calm,Calm,-,N/A,,Clear,0,2012-12-07 18:53:00
11:53 AM,61.0,41.0,48,30.04,10.0,Calm,Calm,-,N/A,,Clear,0,2012-12-07 19:53:00
12:53 PM,64.0,39.9,41,30.01,10.0,NE,4.6,-,N/A,,Clear,50,2012-12-07 20:53:00
1:53 PM,66.0,39.0,37,29.98,10.0,North,6.9,-,N/A,,Clear,10,2012-12-07 21:53:00
2:53 PM,66.9,36.0,32,29.98,10.0,NE,4.6,-,N/A,,Clear,50,2012-12-07 22:53:00
3:53 PM,66.0,35.1,32,29.98,10.0,NNE,5.8,-,N/A,,Clear,30,2012-12-07 23:53:00
4:53 PM,60.8,33.8,36,29.99,10.0,North,5.8,-,N/A,,Clear,360,2012-12-08 00:53:00
5:53 PM,54.0,30.9,41,30.01,10.0,Calm,Calm,-,N/A,,Clear,0,2012-12-08 01:53:00
6:53 PM,50.0,32.0,50,30.04,10.0,West,8.1,-,N/A,,Clear,280,2012-12-08 02:53:00
7:53 PM,48.9,36.0,61,30.04,10.0,West,3.5,-,N/A,,Clear,280,2012-12-08 03:53:00
8:53 PM,44.1,32.0,63,30.04,10.0,SSE,4.6,-,N/A,,Clear,160,2012-12-08 04:53:00
9:53 PM,44.1,32.0,63,30.03,10.0,Calm,Calm,-,N/A,,Clear,0,2012-12-08 05:53:00
10:53 PM,39.0,28.9,67,30.03,10.0,South,3.5,-,N/A,,Clear,180,2012-12-08 06:53:00
11:53 PM,41.0,30.9,67,30.02,10.0,SSE,5.8,-,N/A,,Clear,160,2012-12-08 07:53:00